Location: Aufkirchen
(47.9603°N, 11.3653°E)
Time: 06:45:57
(UTC+01:00)

Transit 4A - Pass Details

Date: 28 November 2020
Orbit: 864 x 980 km, 66.8° (Epoch: 25 January)

Event Time Altitude Azimuth Distance (km) Brightness Sun altitude
Rises 12:18:32 0° 298° (WNW) 3,681 10.8 20.5°
Reaches altitude 10° 12:22:35 10° 322° (NW) 2,740 10.0 20.5°
Maximum altitude 12:25:53 14° 353° (N) 2,440 9.6 20.4°
Drops below altitude 10° 12:29:10 10° 25° (NNE) 2,735 9.9 20.4°
Sets 12:33:13 0° 49° (NE) 3,672 10.6 20.3°
